Dewpoint
36 37 40 44 48 52 47 45 46 46 46 44 44 42 41 42 41 41 44 44 44 45 45 42 44 44 44 45 46 45 46 45 47 44 41 43 49 54 59 55 55 58 54
32 33 36 38 44 49 49 45 44 43 42 40 40 40 40 40 39 40 42 42 43 43 42 43 42 43 40 44 44 45 40 39 45 44 41 37 37 49 40 47 47 48 43
30 30 32 35 37 40 44 45 45 43 42 42 41 40 39 37 35 36 37 39 41 42 43 43 43 43 42 41 43 44 44 39 42 46 42 37 35 38 40 41 42 42 41
29 28 30 31 33 35 38 38 40 40 40 39 38 38 33 33 35 35 37 38 41 41 42 43 44 44 43 44 43 43 44 44 42 42 39 44 43 37 39 38 37 39 39
30 29 29 30 31 34 36 37 37 37 38 39 38 35 35 34 34 35 38 40 40 41 41 43 44 44 42 45 46 45 45 42 42 41 40 41 39 40 38 34 36 38 38
31 30 30 31 31 33 35 37 36 35 37 37 38 38 37 34 33 35 35 35 37 38 41 41 43 44 43 44 44 45 44 43 42 41 40 39 38 38 37 37 37 37 37
31 30 30 29 32 34 36 35 34 34 35 36 37 37 38 38 37 35 35 35 36 37 41 42 42 42 44 43 43 43 42 42 42 42 40 39 39 39 38 37 36 35 36
33 31 30 30 31 35 36 35 34 35 35 35 36 37 35 33 34 36 35 36 36 38 41 41 41 42 41 41 42 40 40 42 41 42 41 38 38 38 38 37 38 35 35
32 31 30 31 33 34 36 37 35 34 34 35 35 36 36 36 36 38 38 37 37 36 40 41 41 41 40 39 39 38 39 40 40 40 40 38 37 38 37 37 38 37 35
33 31 31 33 32 34 35 38 37 35 35 36 35 34 35 36 37 37 38 38 39 38 39 39 40 39 38 38 38 37 38 38 38 36 37 37 36 35 36 36 36 36 37
33 32 31 33 33 34 35 37 36 36 36 36 35 36 35 36 37 37 37 38 39 38 37 38 37 36 36 37 37 36 37 36 37 37 36 35 35 34 34 35 34 33 34
34 33 32 33 33 33 34 35 35 35 35 35 35 36 35 35 36 37 38 39 38 38 36 37 36 35 36 36 35 36 36 35 35 35 35 34 32 34 34 33 33 33 34
34 33 32 32 32 33 33 33 34 33 33 33 34 35 35 35 36 37 37 37 37 37 36 36 36 35 36 35 35 35 35 35 35 35 35 34 34 33 33 33 32 32 31
35 33 33 33 33 33 32 32 33 33 32 32 32 33 34 35 35 36 36 36 35 35 34 35 35 35 33 33 33 34 35 35 34 36 36 35 34 34 33 31 32 31 32
35 34 33 33 33 33 33 32 33 32 32 31 30 33 35 35 35 35 35 36 36 34 34 34 34 33 30 29 32 33 34 34 34 35 33 35 33 33 33 30 32 32 33
35 33 33 32 33 32 32 31 33 32 32 31 31 32 33 33 35 35 36 36 35 34 34 33 33 33 26 32 31 32 33 32 31 32 33 32 33 33 33 32 32 33 31
35 34 33 33 33 33 32 33 33 33 32 32 31 31 32 32 34 33 33 34 35 35 33 33 33 32 31 30 30 31 31 31 32 32 32 29 27 33 30 30 31 31 32
36 35 35 34 34 34 32 34 32 32 32 32 29 30 31 31 32 32 33 34 34 34 33 32 32 32 28 30 30 31 31 31 31 31 32 31 31 31 29 29 30 31 31
39 38 37 36 35 33 33 33 32 32 32 31 29 29 31 30 31 31 32 32 31 32 31 30 30 31 32 29 30 30 29 29 30 30 31 30 29 29 29 29 29 29 29
39 39 38 37 35 34 33 33 32 32 31 31 29 29 31 30 30 31 31 31 30 28 26 27 31 27 31 28 28 28 28 29 29 30 30 31 29 29 29 29 29 28 29
38 38 38 37 36 35 34 32 32 31 31 31 29 29 30 30 31 31 31 29 28 29 29 28 30 29 29 30 28 28 27 27 29 30 31 31 29 28 28 28 28 28 31
36 36 36 36 36 35 34 31 31 32 31 30 29 29 30 27 28 31 30 28 29 30 30 30 30 31 30 28 28 27 27 27 28 28 30 31 27 28 29 28 28 28 29
35 35 34 34 34 33 33 32 33 31 31 29 28 29 29 27 28 29 29 28 29 29 28 28 30 30 29 29 29 29 29 28 29 29 29 28 28 28 28 27 27 27 31
34 33 33 33 33 33 31 32 31 31 29 28 28 28 28 27 27 25 26 28 29 29 27 28 28 29 27 27 28 26 29 28 27 28 31 29 28 28 28 27 27 27 27
34 33 33 33 33 32 31 31 31 30 28 27 27 27 27 27 27 26 27 26 28 29 30 30 28 30 28 25 24 24 23 25 24 27 29 28 27 24 24 24 25 27 26
33 32 33 32 32 31 31 31 30 29 28 27 26 26 26 27 26 28 28 29 28 27 25 23 25 24 22 21 21 20 20 20 21 24 24 25 24 20 20 20 21 22 24
Lifted_Index
3 4 4 3 2 2 0 -0 -1 -1 -1 -0 -0 0 1 2 3 6 8 9 11 12 12 12 13 13 13 13 13 13 13 12 11 11 10 9 6 4 3 4 4 4 5
5 5 5 5 4 3 2 1 0 -0 0 1 1 2 3 4 6 9 11 13 14 14 15 15 14 14 14 14 14 14 14 13 12 12 11 10 8 6 6 6 6 7 8
7 7 7 7 7 6 5 4 3 3 3 4 5 6 7 9 11 13 15 16 17 17 17 16 16 16 15 15 15 15 15 14 13 13 12 11 10 9 8 9 9 10 11
7 7 8 9 10 10 10 9 9 8 9 10 10 11 12 13 14 16 17 17 17 17 17 17 16 16 16 16 16 15 15 14 14 14 14 13 12 11 10 10 11 11 12
7 7 8 9 11 12 13 13 13 14 14 15 15 15 15 15 16 17 17 17 17 17 17 17 17 16 16 16 16 15 15 15 15 14 14 14 13 12 11 10 11 12 12
7 7 8 9 11 13 14 15 16 16 17 17 17 17 17 16 17 17 17 17 17 17 17 17 17 17 17 16 16 16 16 15 15 15 14 14 14 13 13 11 11 12 13
6 7 8 9 11 13 15 16 17 17 17 17 17 17 17 17 17 17 17 17 17 17 17 17 17 17 17 17 16 16 16 16 16 15 15 15 14 14 14 14 12 12 12
6 6 8 10 12 13 15 16 16 17 17 17 17 17 17 17 17 17 17 17 17 18 18 18 17 17 17 17 17 17 17 16 16 16 16 15 15 15 15 15 14 13 12
5 6 7 9 11 13 14 15 16 16 17 17 17 17 17 17 17 17 17 17 18 18 18 17 17 18 18 18 18 17 17 17 17 17 17 16 16 16 16 16 15 14 13
4 5 6 8 11 13 14 15 15 16 16 17 17 17 17 17 17 17 17 17 18 18 18 17 18 18 18 18 18 18 18 18 17 17 17 17 17 17 17 17 17 16 15
3 4 5 7 10 12 14 14 15 15 16 16 17 17 17 17 17 17 17 17 18 18 18 18 18 18 19 19 19 18 18 18 18 18 18 18 18 18 18 18 17 17 17
3 3 4 6 9 12 13 14 14 15 15 16 16 17 17 17 17 17 18 18 18 18 18 18 18 19 19 19 19 19 18 18 18 18 18 18 18 18 18 18 18 17 17
3 3 4 6 8 11 12 13 14 14 15 16 16 17 17 17 17 18 18 18 18 18 18 18 18 19 19 19 19 19 18 18 18 18 18 18 18 18 18 18 18 17 17
3 3 4 5 8 10 11 12 13 14 15 16 16 17 17 17 17 18 18 18 18 18 18 18 19 19 19 19 19 19 18 18 18 18 18 18 18 18 18 18 18 17 17
3 3 3 5 7 9 10 11 12 14 15 16 16 17 17 17 18 18 18 18 18 18 19 19 19 19 19 19 19 19 18 18 18 18 18 18 18 18 18 18 18 18 17
2 3 3 4 6 8 9 10 11 13 15 16 16 17 17 18 18 18 18 18 18 19 19 19 19 19 19 19 19 19 19 18 18 18 18 18 18 18 18 18 18 17 17
2 3 3 4 6 7 8 9 10 12 14 16 17 17 18 18 18 18 18 18 18 19 19 19 19 19 19 19 19 19 19 18 18 18 18 18 18 18 18 18 18 17 17
2 2 3 4 5 7 8 9 10 11 13 15 17 17 18 18 18 18 18 18 18 19 19 19 19 19 19 19 19 18 18 18 18 18 18 18 18 19 19 18 18 17 17
2 2 3 4 5 6 7 8 9 11 12 15 16 17 18 18 18 18 18 18 19 19 19 19 19 19 18 18 18 18 18 18 18 18 18 18 19 19 19 19 18 18 17
2 3 3 3 4 6 7 8 9 10 12 14 16 17 18 18 18 18 18 19 19 19 19 19 19 19 19 19 19 18 18 18 18 18 18 18 19 19 19 19 18 17 17
2 3 3 3 4 6 7 8 8 9 12 14 16 17 18 18 18 18 18 19 19 19 19 19 19 19 19 19 19 19 19 19 18 18 18 18 18 19 19 19 18 17 16
3 3 3 3 5 6 7 8 8 9 12 14 16 17 18 18 18 18 18 18 18 18 18 18 19 19 19 20 20 20 20 19 18 18 18 18 18 18 18 18 17 16 15
3 3 3 4 5 6 7 8 8 10 11 14 16 17 18 18 18 18 18 18 18 18 18 18 18 19 19 20 20 20 20 19 18 18 18 18 17 17 17 17 17 16 15
3 3 3 4 5 6 7 8 8 9 11 13 15 17 17 18 18 18 18 18 18 18 18 18 18 18 19 19 20 20 19 19 19 18 18 18 17 17 17 17 16 15 14
3 3 4 4 5 6 7 8 8 9 11 13 15 16 17 17 17 18 18 18 18 18 19 19 19 18 18 19 19 19 19 19 19 19 18 18 18 17 17 16 16 15 14
4 4 4 4 4 5 7 8 9 9 10 12 15 16 17 17 17 17 18 18 19 19 19 19 19 19 19 19 19 20 20 20 19 19 18 18 18 17 17 16 16 15 14